Powrót do katalogu

COSMOS 1823 DEB

AktywnyLEO
NORAD 19640·DEBRIS·🇷🇺 Russia

Wystrzelony Feb 20, 1987 z Plesetsk Cosmodrome

Loading…

Następne Przeloty (najbliższe 24 godziny)

TLE

ŚwieżeSource: Space-Track

Epoka: Sep 14, 2026, 07:19 UTC

1 19640U 87020CE  26257.30538086  .00000038  00000-0  51651-3 0  9994
2 19640  73.5499  15.0595 0165374  23.4818   0.5880 12.17039263603763

Śledź COSMOS 1823 DEB w czasie rzeczywistym z AllMySat

Download on the App Store